Location: Kermapucano
(48.0667°N, 3.3000°W)
Time: 20:24:31
(UTC+00:00)

Cosmos 405 Rocket - Pass Details

Date: 29 November 2020
Orbit: 489 x 554 km, 81.3° (Epoch: 27 January)

Event Time Altitude Azimuth Distance (km) Brightness Sun altitude
Rises 05:35:25 0° 175° (S) 2,555 6.4 -20.1°
Reaches altitude 10° 05:37:34 10° 168° (SSE) 1,683 5.6 -19.8°
Maximum altitude 05:41:04 44° 96° (E) 696 3.8 -19.2°
Drops below altitude 10° 05:44:40 10° 23° (NNE) 1,721 5.5 -18.6°
Sets 05:46:53 0° 17° (NNE) 2,621 6.4 -18.3°
